Location: Arbon
(43.0005°N, 0.7472°E)
Time: 11:31:58
(UTC+00:00)

USA 245 - Pass Details

Date: 22 April 2026
Orbit: 264 x 994 km, 97.9° (Epoch: 15 October)

Event Time Altitude Azimuth Distance (km) Brightness Sun altitude
Exits shadow 21:05:18 57° 129° (SE) 852 3.8 -22.3°
Maximum altitude 21:06:08 70° 74° (ENE) 791 3.9 -22.4°
Drops below altitude 10° 21:11:34 10° 351° (N) 2,445 7.3 -23.1°
Sets 21:14:07 0° 350° (N) 3,449 8.3 -23.4°
